Regional Weather Roundup
Issued by NWS Sterling, VA

Home | Current Version | Previous Version | Graphics & Text | Print | Product List | Glossary On
Versions: 1 2 3 4 5 6 7 8 9 10 11 12 13 14 15 16 17 18 19 20 21 22 23 24 25 26 27 28 29 30 31 32 33 34 35 36 37 38 39 40 41 42 43 44 45 46 47 48 49 50
000
ASUS41 KLWX 030810
RWRLWX

REGIONAL WEATHER ROUNDUP
NATIONAL WEATHER SERVICE BALTIMORE MD/WASHINGTON DC
400 AM EDT SUN MAY 03 2015

Note: "FAIR" indicates few or no clouds below 12,000 feet
with no significant weather and/or obstructions to visibility.
 TC=TEMPERATURE CELSIUS

 * =Non NWS site. Station does not report precipitation (e.g. rain,
    snow, etc.), thunder, or fog.

DCZ001-MDZ009-015-VAZ040>042-051-053>054-030900-
WASHINGTON METRO

CITY           SKY/WX    TMP DP  RH WIND       PRES   REMARKS
WASHINGTON NAT MOCLDY    57  50  77 S6        30.04S
DULLES         PTCLDY    46  42  86 CALM      30.05R
ANDREWS AFB    CLOUDY    56  46  68 SW5       30.03R
FT BELVOIR     CLOUDY    46  45  95 CALM      30.04S
QUANTICO       PTCLDY    56  46  69 W7        30.05R
COLLEGE PARK*  CLOUDY    50  48  93 CALM      30.03R
LEESBURG*      CLEAR     54  45  71 CALM      30.06R
MANASSAS*      PTCLDY    46  46 100 CALM      30.06R
GAITHERSBURG*  CLEAR     48  39  71 CALM      30.08R

$$

MDZ006>007-011-014-030900-
BALTIMORE METRO

CITY           SKY/WX    TMP DP  RH WIND       PRES   REMARKS
BWI AIRPORT    MOCLDY    52  44  74 CALM      30.01S
MD SCIENCE CTR   N/A     58  45  62 MISG      30.02S
MARTIN STATE   PTCLDY    52  50  93 CALM      30.03R
ANNAPOLIS      CLOUDY    57  47  69 CALM      30.01S
FORT MEADE*    PTCLDY    45  45 100 CALM      30.05R

$$

MDZ012-015-019>023-030900-
MARYLAND EASTERN SHORE

CITY           SKY/WX    TMP DP  RH WIND       PRES   REMARKS
OCEAN CITY     CLEAR     51  47  86 VRB5      30.05S
SALISBURY      CLEAR     44  42  93 CALM      30.04S
BAY BRIDGE AP*   N/A    N/A N/A N/A S3        30.02S
CAMBRIDGE*     CLEAR     54  52  94 S3        30.03S
EASTON*        PTCLDY    54  54 100 CALM      30.06S

$$

MDZ017>025-030900-
SOUTHERN MARYLAND

CITY           SKY/WX    TMP DP  RH WIND       PRES   REMARKS
PATUXENT RIVER CLEAR     54  48  80 W5        30.03S
ST INIGOES     CLEAR     51  47  86 CALM      30.04R
LEONARDTOWN*   CLEAR     54  46  76 SW6       30.05S

$$

MDZ003>005-030900-
NORTH CENTRAL MARYLAND

CITY           SKY/WX    TMP DP  RH WIND       PRES   REMARKS
FREDERICK*     CLEAR     48  41  76 S3        30.07R
HAGERSTOWN APT CLEAR     52  42  69 E3        30.06R
WESTMINSTER*   CLEAR     59  36  41 NW5       30.03R

$$

MDZ501>502-030900-
WESTERN MARYLAND

CITY           SKY/WX    TMP DP  RH WIND       PRES   REMARKS
OAKLAND*       CLEAR     52  36  54 SW6       30.12R
CUMBERLAND*    CLEAR     46  43  87 CALM      30.12S

$$

VAZ025>031-030900-
SHENANDOAH VALLEY

CITY           SKY/WX    TMP DP  RH WIND       PRES   REMARKS
WINCHESTER*    CLEAR     48  37  66 CALM      30.08R
FRONT ROYAL*   FAIR      52  43  71 S8        30.07R
LURAY*         PTSUNNY   46  46 100 CALM      30.09R
NEW MARKET*    PTSUNNY   45  43  93 CALM      30.10R
STAUNTON*      MOCLDY    46  43  91 CALM      30.12R
WAYNESBORO*    FAIR      45  41  88 CALM      30.11R

$$

WVZ021-048>050-054>055-030900-
EASTERN WEST VIRGINIA PANHANDLE

CITY           SKY/WX    TMP DP  RH WIND       PRES   REMARKS
MARTINSBURG    CLEAR     46  40  79 CALM      30.06R
PETERSBURG*    MOCLDY    44  39  84 CALM      30.12R

$$

VAZ036>039-050-030900-
CENTRAL FOOTHILLS

CITY           SKY/WX    TMP DP  RH WIND       PRES   REMARKS
CHARLOTTESVILL PTCLDY    48  44  86 CALM      30.07S
CULPEPER*      NOT AVBL
ORANGE*        CLEAR     54  43  66 CALM      30.08R
GORDONSVILLE*  FAIR      45  43  92 SW5       30.06R
WARRENTON*     FAIR      44  44 100 CALM      30.05S

$$

VAZ055>057-030900-
NORTH AND CENTRAL PIEDMONT

CITY           SKY/WX    TMP DP  RH WIND       PRES   REMARKS
FREDERICKSBRG* PTCLDY    49  49 100 CALM      30.05R
STAFFORD*      PTCLDY    45  32  61 CALM      30.09R

$$

NCZ024-NYZ072-PAZ021-071-VAZ022-071-030900-
OTHER REGIONAL OBSERVATIONS

CITY           SKY/WX    TMP DP  RH WIND       PRES   REMARKS
NEW YORK CITY  CLEAR     52  34  50 W5        30.07R
PHILADELPHIA   MOCLDY    51  44  77 E5        30.05R
PITTSBURGH     CLEAR     50  41  71 CALM      30.06R
ROANOKE        CLEAR     46  42  86 CALM      30.14S
RICHMOND       CLEAR     57  46  66 W5        30.07R
RALEIGH        PTCLDY    49  47  93 CALM      30.11S

$$

ANZ530>537-030900-
MARINE OBSERVATIONS

STATION/POSITION TIME  TEMP    WIND        PRES
                       AIR SEA DIR/SP/G
                 (UTC) (F)     (DEG/KT/KT) (MB)
THOMAS PT LIGHT  0800   59 57  210/  4/  4 1017.3R
BALT KEY BRIDGE  0700   58     240/  4/  5 1016.0S
COVE POINT       0700   60     270/ 11/ 14 1017.2F
LEWISETTA        0700   58 62              1016.9S
SOLOMONS ISLAND  0700      59                N/A
PINEY POINT      0700          310/  6/  8   N/A

$$



USA.gov is the U.S. government's official web portal to all federal, state and local government web resources and services.